Orbital Elements at Epoch 2459000.5 (2020-May-31.0) TDB
Reference: JPL 22 (heliocentric ecliptic J2000)
Element | Value | Uncertainty (1-sigma) | Units |
e | .8000217162647806 | 2.404e-05 | |
a | 165.8259958373825 | 0.020652 | au |
q | 33.16159804624338 | 0.00014466 | au |
i | 23.41614788308904 | 3.432e-05 | deg |
node | 33.61990172990936 | 1.895e-05 | deg |
peri | 354.5810313565987 | 0.00055221 | deg |
M | .4790269107279561 | 9.847e-05 | deg |
tp | 2457962.649595232159 (2017-Jul-28.14959523) | 0.080108 | TDB |
period | 779969.0108195374 2135.44 | 145.71 0.3989 | d yr |
n | .0004615567990601792 | 8.6224e-08 | deg/d |
Q | 298.4903936285215 | 0.037174 | au |
|
| | Orbit Determination Parameters
Additional Information
|